#timestamp,LO_Frequency,Hit 
1498323615.3,286047199.1,N
1498323635.1,286047194.6,N
1498323655.9,286047190.8,N
1498323675.7,286047190.9,N
1498323695.5,286047191.7,N
1498323715.4,286047196.8,N
1498323735.2,286047194.4,N
1498323755.0,286047194.0,N
1498323755.9,286047194.0,N
1498323775.8,286047190.4,N
1498323795.6,286047193.9,N
1498323815.4,286047192.2,N
1498323835.3,286047194.6,N
1498323855.1,286047192.2,N
1498323856.0,286047192.2,N
1498323875.8,286047190.7,N
1498323895.7,286047190.8,N
1498323915.5,286047187.7,N
1498323935.3,286047189.7,N
1498323955.1,286047190.1,N
1498323975.9,286047192.0,N
1498323995.7,286047190.9,N
1498324015.5,286047187.1,N
1498324035.4,286047186.5,N
1498324055.2,286047186.8,N
1498324075.0,286047186.8,N
1498324075.9,286047186.8,N
1498324095.8,286047182.5,N
1498324115.6,286047183.3,N
1498324135.4,286047177.8,N
1498324155.3,286047181.9,N
1498324175.1,286047180.5,N
1498324176.0,286047180.5,N
1498324195.8,286047179.0,N
1498324215.7,286047180.8,N
1498324235.5,286047179.9,N
1498324255.3,286047181.9,N
1498324275.1,286047177.0,N
1498324295.9,286047176.1,N
1498324315.7,286047177.2,N
1498324335.5,286047175.7,N
1498324355.4,286047176.0,N
1498324375.2,286047177.2,N
1498324395.0,286047173.8,N
1498324395.9,286047173.8,N
1498324415.8,286047167.8,N
1498324435.6,286047166.2,N
1498324455.4,286047169.0,N
1498324475.3,286047173.2,N
1498324495.1,286047173.0,N
1498324496.0,286047173.0,N
1498324515.8,286047183.0,N
1498324535.7,286047178.2,N
1498324555.5,286047188.2,N
1498324575.3,286047190.0,N
1498324595.2,286047186.3,N
1498324615.9,286047190.0,N
1498324635.7,286047185.9,N
1498324655.6,286047185.3,N
1498324675.4,286047189.7,N
1498324695.2,286047188.3,N
1498324715.0,286047184.0,N
1498324715.9,286047184.0,N
1498324735.8,286047185.7,N
1498324755.6,286047186.9,N
1498324775.4,286047185.4,N
1498324795.3,286047187.6,N
1498324815.1,286047185.8,N
1498324835.8,286047182.4,N
1498324855.7,286047191.1,N
1498324875.5,286047195.7,N
1498324895.3,286047202.3,N
1498324915.2,286047214.6,N
1498324935.9,286047208.0,N
1498324955.7,286047215.4,N
1498324975.5,286047211.6,N
1498324995.4,286047212.0,N
1498325015.2,286047215.3,N
1498325035.0,286047212.1,N
1498325035.9,286047212.1,N
1498325055.8,286047201.4,N
1498325075.6,286047204.0,N
1498325095.4,286047210.9,N
1498325115.3,286047209.8,N
1498325135.1,286047206.7,N
1498325155.8,286047207.4,N
1498325175.7,286047204.0,N
1498325195.5,286047202.5,N
1498325215.3,286047201.7,N
1498325235.2,286047202.4,N
1498325255.9,286047203.5,N
1498325275.7,286047206.9,N
1498325295.6,286047212.8,N
1498325315.4,286047217.6,N
1498325335.2,286047216.7,N
1498325355.0,286047223.1,N
1498325356.0,286047223.1,N
1498325375.8,286047216.7,N
1498325395.6,286047216.4,N
1498325415.4,286047213.7,N
1498325435.3,286047215.8,N
1498325455.1,286047216.3,N
1498325475.8,286047218.0,N
1498325495.7,286047219.9,N
1498325515.5,286047217.5,N
1498325535.3,286047218.7,N
1498325555.2,286047216.7,N
1498325575.9,286047220.4,N
1498325595.7,286047220.3,N
1498325615.6,286047220.5,N
1498325635.4,286047225.1,N
1498325655.2,286047219.7,N
1498325675.0,286047222.0,N
1498325675.9,286047222.0,N
1498325695.8,286047219.5,N
1498325715.6,286047224.8,N
1498325735.4,286047219.7,N
1498325755.3,286047219.2,N
1498325775.1,286047221.3,N
1498325795.8,286047226.4,N
1498325815.7,286047220.9,N
1498325835.5,286047220.7,N
1498325855.3,286047223.3,N
1498325875.2,286047223.2,N
1498325895.9,286047229.6,N
1498325915.7,286047234.1,N
1498325935.6,286047232.0,N
1498325955.4,286047239.5,N
1498325975.2,286047238.8,N
1498325995.0,286047237.7,N
1498325996.0,286047237.7,N
1498326015.8,286047231.9,N
1498326035.6,286047227.5,N
1498326055.4,286047232.5,N
1498326075.3,286047230.1,N
1498326095.1,286047231.4,N
1498326115.8,286047230.6,N
1498326135.7,286047227.5,N
1498326155.5,286047226.7,N
1498326175.3,286047226.9,N
1498326195.2,286047228.2,N
1498326215.9,286047228.2,N
1498326235.7,286047227.6,N
1498326255.6,286047233.0,N
1498326275.4,286047236.1,N
1498326295.2,286047241.9,N
1498326315.0,286047244.3,N
1498326316.0,286047244.3,N
1498326335.8,286047239.9,N
1498326355.6,286047247.0,N
1498326375.4,286047250.2,N
1498326395.3,286047247.5,N
1498326415.1,286047245.1,N
1498326435.8,286047242.1,N
1498326455.7,286047242.5,N
1498326475.5,286047239.1,N
1498326495.3,286047235.3,N
1498326515.2,286047237.3,N
1498326535.9,286047239.5,N
1498326555.7,286047243.6,N
1498326575.6,286047246.5,N
1498326595.4,286047249.0,N
1498326615.2,286047248.0,N
1498326635.0,286047249.6,N
1498326636.0,286047249.6,N
1498326655.8,286047253.5,N
1498326675.6,286047258.8,Y
1498326695.5,286047123.4,N
1498326715.3,286047120.5,N
1498326735.1,286047118.2,N
1498326755.8,286047115.6,N
1498326775.7,286047122.0,N
1498326795.5,286047127.7,N
1498326815.3,286047132.8,N
1498326835.2,286047134.9,N
1498326855.9,286047131.5,N
1498326875.7,286047136.2,N
1498326895.6,286047133.9,N
1498326915.4,286047134.6,N
1498326935.2,286047135.2,N
1498326955.1,286047144.4,N
1498326956.0,286047144.4,N
1498326975.8,286047143.5,N
1498326995.6,286047146.7,N
1498327015.4,286047138.8,N
1498327035.3,286047144.7,N
1498327055.1,286047142.2,N
1498327075.8,286047140.5,N
1498327095.7,286047140.0,N
1498327115.5,286047143.6,N
1498327135.3,286047142.9,N
1498327155.2,286047142.7,N
1498327175.9,286047142.6,N
1498327195.7,286047137.3,N
